GFSSGP_sfc_temp_024.txt.gz
Temp
77 81 86 82 71 71 63 64 70 67 67 70 71 72 71 68 69 64 67 69 69 70 73 74 71 72 72 72 73 73 73 73 73 74 74 74 74 75 75 75 74 75 76 77 77 78 78 77 76
81 79 83 79 69 65 67 69 66 71 69 69 68 67 67 68 65 64 66 67 68 70 72 73 69 70 71 71 71 71 71 71 72 72 72 72 72 73 73 73 73 73 74 76 77 77 76 76 75
80 80 78 74 69 66 67 68 72 68 68 68 66 66 67 66 65 68 68 67 69 69 71 70 68 69 69 70 70 70 69 70 70 70 70 70 70 70 70 70 70 71 72 74 74 75 74 74 74
81 80 77 69 65 67 68 72 72 66 65 67 68 66 64 66 67 69 68 68 68 67 70 68 67 68 68 68 68 68 68 68 68 68 68 69 68 67 67 68 69 69 69 70 70 71 72 72 72
82 79 70 66 65 67 69 73 72 67 70 68 66 67 63 64 67 68 67 68 67 66 67 68 65 65 66 66 66 66 66 66 66 65 65 66 66 65 65 66 67 67 67 67 68 69 69 69 70
76 76 66 64 65 67 70 72 71 71 68 65 64 64 65 66 64 66 68 67 67 65 63 64 61 62 63 64 64 64 64 64 63 63 62 62 63 63 62 63 64 65 65 65 66 66 67 68 68
72 71 66 64 64 64 68 72 69 71 69 67 66 65 64 62 66 66 67 66 66 65 63 63 63 60 59 60 60 61 61 61 60 60 59 59 59 59 59 60 61 62 62 63 63 64 65 65 64
75 73 63 64 65 64 68 69 68 70 69 65 69 68 67 65 65 65 65 65 65 64 64 63 62 62 61 61 57 57 58 58 57 57 56 56 58 58 57 57 58 59 60 60 61 62 62 62 62
70 68 64 64 62 67 67 67 65 64 65 63 66 64 63 68 64 62 61 62 62 61 62 62 62 61 61 60 56 56 55 55 56 57 56 59 61 60 60 55 54 56 56 57 59 59 59 59 62
71 66 66 69 70 68 68 68 68 65 64 63 63 64 60 64 61 60 60 61 62 61 60 62 62 61 60 62 59 59 59 59 58 57 58 59 59 57 57 56 54 54 53 56 57 58 59 61 65
67 67 68 68 69 68 67 65 68 66 64 71 69 70 60 61 60 61 62 64 63 63 62 61 61 60 59 59 60 60 60 59 58 56 56 56 58 58 58 57 57 57 55 59 59 59 61 59 60
65 67 67 67 66 64 64 66 63 66 73 71 73 71 63 60 60 61 62 63 62 60 60 59 60 58 58 59 59 59 59 58 58 56 54 55 56 55 55 55 55 55 56 55 56 57 57 57 58
65 67 65 67 64 65 62 64 66 65 72 71 64 63 62 62 62 63 64 63 61 59 59 59 59 58 58 58 58 58 57 57 56 56 54 54 54 53 53 53 53 53 54 53 54 54 55 56 57
67 64 66 65 65 64 61 64 60 70 69 68 61 63 63 63 63 63 62 60 59 60 58 59 58 58 58 58 57 57 57 56 56 55 53 51 52 51 51 51 51 52 51 51 51 51 52 53 55
63 61 64 63 64 63 61 60 59 72 61 64 61 63 63 63 64 62 62 60 60 59 59 57 57 57 57 56 56 56 55 55 55 55 52 51 50 50 49 49 50 50 49 49 51 51 52 52 54
61 60 60 62 60 60 61 60 71 72 62 64 66 64 61 61 62 63 63 62 61 60 57 57 57 56 56 55 55 55 54 54 55 55 54 50 49 48 48 48 48 48 48 48 49 49 48 49 50
59 61 57 59 62 58 59 62 68 62 61 63 68 66 62 61 61 62 63 61 60 60 58 56 56 55 54 54 54 53 51 53 55 54 54 50 48 47 47 47 47 46 46 47 47 46 46 45 47
61 57 59 57 60 56 56 58 66 69 60 64 69 69 65 61 61 62 61 60 60 58 58 56 55 55 54 53 52 52 52 52 53 52 51 49 49 46 46 46 45 45 44 46 45 44 45 44 46
60 57 59 64 57 56 58 57 62 67 66 62 65 68 66 62 65 64 60 58 56 56 55 55 53 54 53 51 50 49 50 51 50 50 49 48 47 45 44 45 45 45 44 43 42 42 41 42 44
56 56 57 61 53 52 56 53 58 62 63 65 67 68 68 64 62 61 58 55 53 53 53 53 53 53 52 52 50 51 50 50 50 49 48 47 46 45 44 43 43 44 43 42 42 40 39 41 43
55 55 58 53 52 51 48 51 54 60 60 63 63 66 68 64 60 58 53 53 53 52 52 52 52 52 51 49 48 46 46 47 46 48 48 47 45 44 43 42 42 42 42 41 40 40 38 36 40
52 57 54 50 48 49 50 45 58 62 61 60 67 69 64 61 58 57 53 53 53 53 52 51 51 50 49 48 46 46 47 48 49 47 47 45 44 43 42 41 41 41 41 40 40 40 38 37 35
55 50 50 48 47 42 50 43 55 49 52 59 65 69 64 63 58 57 53 53 53 51 50 50 50 48 47 45 47 46 45 46 47 44 42 43 43 42 41 40 40 40 40 40 39 38 38 37 35
49 49 46 43 45 38 51 48 53 53 56 61 64 68 61 57 57 58 56 53 52 51 49 50 49 48 46 46 47 46 45 44 43 42 41 42 41 41 41 39 39 39 39 38 38 38 36 36 35
49 49 45 42 39 41 46 41 51 57 60 61 66 70 60 58 56 55 52 50 50 48 47 48 48 47 47 46 46 45 44 43 41 41 40 39 39 40 40 39 38 38 38 37 37 36 35 35 34
47 51 44 35 39 44 39 38 54 60 64 64 58 59 55 54 54 53 52 51 49 46 47 47 47 47 47 46 44 44 43 42 41 40 39 38 38 38 38 37 37 36 36 35 35 34 34 34 33
45 44 49 42 29 32 49 56 56 53 54 54 53 55 57 56 55 53 51 50 50 47 47 47 47 47 46 45 44 42 41 39 39 38 38 37 37 36 35 35 34 34 34 34 33 32 32 32 32
45 47 40 42 33 34 46 48 52 53 53 55 53 55 61 58 56 53 51 50 49 49 48 48 48 46 45 44 43 41 39 38 38 36 35 35 35 34 33 33 33 32 32 32 32 31 31 30 30
39 42 42 41 38 37 36 46 59 57 56 54 56 60 61 58 57 55 52 50 49 49 48 47 47 46 43 42 40 38 37 36 35 34 34 33 33 32 31 31 30 30 30 30 29 28 28 27 27
45 47 47 41 37 40 41 42 55 58 58 56 56 55 58 57 58 57 52 49 47 47 47 45 46 43 42 40 38 36 35 34 33 33 32 32 30 31 29 29 28 28 27 27 26 25 26 25 24

GFSSGP_sfc_temp_027.txt.gz
Temp
78 86 90 84 72 72 69 69 77 72 71 78 81 77 74 75 71 64 71 73 74 75 77 74 71 71 72 72 72 72 72 73 73 73 74 73 74 74 74 73 73 74 75 77 77 77 76 75 75
88 86 85 82 69 67 71 76 70 75 75 77 75 73 73 72 72 68 69 72 74 75 76 73 69 70 71 71 71 71 71 71 71 72 72 72 72 71 72 71 71 72 73 74 75 75 75 74 74
84 86 80 75 72 68 70 74 77 75 75 74 73 73 75 73 72 72 72 73 74 74 74 70 68 69 70 70 69 69 69 70 70 70 70 70 69 69 69 70 69 70 70 71 72 72 72 71 72
85 84 82 70 69 75 74 77 79 72 72 73 75 71 71 73 73 74 72 73 73 72 72 68 67 68 68 68 68 68 68 68 68 68 68 68 67 67 67 68 68 68 68 69 69 69 69 69 70
85 82 71 69 71 75 76 79 78 73 74 74 72 71 70 69 73 72 71 73 71 71 71 68 65 66 67 67 66 66 66 66 66 65 66 66 65 65 65 66 66 66 67 67 68 67 68 68 68
77 79 68 67 72 74 76 78 77 76 76 73 71 72 73 73 69 71 72 72 72 69 68 67 62 63 64 64 64 64 64 64 64 63 63 63 63 63 63 63 64 64 65 65 65 65 66 66 66
73 73 69 70 71 71 74 79 75 76 76 73 74 70 70 67 71 71 72 72 71 70 67 67 65 61 61 61 61 62 61 61 61 60 60 60 60 61 60 61 61 62 62 63 63 63 64 64 64
78 75 69 71 70 69 75 75 76 77 76 74 76 71 72 72 71 71 71 70 70 69 68 66 65 65 64 61 58 59 58 58 58 58 57 59 61 61 59 58 58 59 59 60 61 61 62 62 62
78 69 67 70 69 72 74 72 73 73 75 71 73 73 70 74 70 67 66 67 68 66 67 66 65 65 64 62 58 56 56 57 59 59 58 62 64 62 62 57 57 58 58 60 61 61 61 62 65
73 69 71 76 76 73 74 73 75 68 70 72 71 73 68 69 66 64 63 64 65 64 64 66 65 65 64 66 62 62 62 62 61 61 61 62 62 60 60 58 58 59 57 60 61 61 62 62 63
74 69 75 75 76 74 74 72 76 69 69 75 74 75 67 67 64 64 65 66 66 67 66 66 65 65 63 63 63 63 63 62 61 59 59 60 61 60 60 59 58 58 57 59 59 59 60 59 60
67 75 74 73 72 69 69 75 71 71 75 78 82 83 73 66 65 65 66 67 68 67 66 65 65 63 63 63 63 62 62 62 61 58 58 59 59 58 57 57 57 56 56 55 56 56 56 57 58
68 74 73 73 69 69 70 67 70 73 79 81 76 72 73 68 68 68 69 69 69 67 66 64 64 62 62 61 62 62 60 61 60 59 57 58 57 56 56 55 55 55 55 54 53 54 54 54 56
72 71 72 72 70 69 65 69 67 74 79 78 77 70 72 71 70 70 68 68 68 67 65 64 62 63 62 61 61 60 60 59 59 58 56 54 55 54 54 53 53 54 53 52 52 52 53 53 54
69 64 72 71 70 66 67 62 64 73 73 74 75 73 71 72 72 70 70 68 68 66 66 63 62 62 61 61 60 60 59 59 58 57 55 54 53 53 52 52 52 52 51 51 52 53 53 52 54
65 67 62 73 68 66 65 62 76 81 74 70 73 74 71 71 71 72 72 70 69 66 64 63 62 60 60 60 59 59 58 58 57 57 56 53 52 52 51 51 51 51 50 50 51 50 49 50 50
66 61 65 67 67 65 62 64 76 75 71 71 74 76 75 72 72 72 72 71 68 66 64 61 60 59 58 59 58 58 56 56 57 56 55 52 51 50 50 50 50 49 48 49 49 49 48 47 47
63 65 67 65 68 63 61 60 70 75 74 72 73 75 76 76 73 72 71 70 68 66 65 61 59 58 57 56 56 55 55 55 55 54 54 51 51 50 49 49 48 48 47 47 48 45 46 46 46
66 63 62 67 71 62 62 62 67 72 72 71 73 74 76 76 80 74 70 69 66 65 63 60 58 58 56 53 51 51 51 52 52 53 52 51 50 49 48 47 47 47 46 46 45 44 43 44 46
65 59 59 66 68 58 60 59 66 69 69 70 71 73 75 77 77 72 69 66 63 62 61 60 58 57 56 55 54 55 54 54 54 52 50 50 49 48 47 46 45 46 45 44 44 44 41 42 45
59 57 59 60 64 57 55 53 59 66 68 70 71 73 74 74 75 70 66 63 61 60 59 58 58 57 56 55 55 52 51 49 48 48 48 48 49 47 46 45 45 44 44 42 43 42 41 38 42
53 65 62 58 54 50 57 46 60 66 67 68 69 72 76 78 73 70 64 62 60 58 58 58 57 56 55 55 52 49 47 47 50 51 50 48 48 47 46 44 44 43 43 42 43 44 41 40 37
57 55 56 55 52 52 53 49 56 61 59 62 66 70 76 76 67 65 62 60 60 58 57 56 56 54 54 52 51 49 49 51 52 49 47 46 47 46 45 43 42 42 42 42 42 41 40 40 38
55 53 53 51 51 41 53 52 53 60 59 63 65 69 69 66 65 64 63 61 59 58 56 53 53 54 52 51 51 50 49 49 47 46 45 45 46 45 44 43 42 41 41 41 41 41 39 39 38
52 51 46 43 41 41 59 53 57 64 67 67 68 72 68 65 63 62 60 58 57 55 53 52 52 52 52 49 50 49 49 49 46 45 45 44 43 43 43 43 41 40 41 40 39 38 38 38 37
49 54 45 36 39 45 50 45 56 69 70 70 70 70 67 62 62 61 61 58 56 54 52 51 51 51 51 49 49 49 48 47 46 45 44 43 42 42 43 41 39 39 39 38 37 37 37 36 35
49 43 54 45 37 38 50 57 66 63 64 65 63 60 60 63 63 60 60 58 56 54 52 50 50 50 51 49 49 48 46 45 44 43 43 42 42 40 39 38 37 37 37 36 36 35 34 34 34
51 52 43 45 33 34 46 49 52 59 59 61 59 59 63 66 64 62 60 58 57 55 53 51 51 50 50 49 47 46 44 44 43 42 40 39 39 38 37 36 35 35 35 35 34 33 34 32 32
41 44 44 46 46 38 36 46 63 60 62 62 61 59 60 65 62 62 60 59 57 56 53 51 50 49 48 47 46 43 41 42 41 39 39 38 37 36 34 34 33 33 32 33 32 31 31 29 29
50 52 51 41 39 43 42 43 60 62 64 65 60 61 65 64 65 66 63 59 55 54 53 51 50 48 48 46 44 42 40 39 37 36 37 36 34 34 33 32 31 30 30 30 29 28 28 27 26

GFSSGP_sfc_temp_030.txt.gz
Temp
75 78 81 74 59 59 56 61 67 65 63 67 72 67 63 66 63 53 63 68 71 71 72 69 71 72 72 72 72 72 73 73 74 73 73 73 73 73 73 72 72 73 74 75 75 75 74 74 74
76 85 75 68 56 53 58 66 62 67 68 70 68 66 63 61 66 61 60 69 71 71 70 68 69 71 71 71 71 71 71 71 71 72 72 72 71 71 71 71 71 71 72 73 73 73 73 72 72
78 84 66 62 58 56 57 64 67 66 68 66 63 62 64 61 66 63 64 68 69 68 68 67 69 70 70 70 70 70 70 70 70 71 70 70 69 69 70 69 69 69 70 71 71 70 70 70 71
77 72 69 57 57 65 62 65 68 65 64 68 66 60 63 64 66 66 67 68 66 66 66 66 68 69 69 69 69 68 68 68 68 69 68 68 68 67 68 68 68 68 68 69 69 69 69 68 68
73 69 58 56 60 65 68 69 70 65 64 65 64 61 59 63 66 65 65 68 64 63 62 63 67 68 68 68 67 67 67 67 66 66 66 66 66 66 66 66 66 66 67 67 67 67 67 67 67
65 67 56 54 61 66 66 67 69 68 69 65 62 59 60 64 63 63 64 63 65 62 60 61 63 65 65 65 66 65 65 65 64 64 64 64 64 64 64 64 64 65 65 65 65 65 65 65 65
62 60 56 59 62 64 69 71 65 67 66 64 65 60 56 59 63 63 63 63 63 62 60 58 57 60 62 62 63 63 63 62 62 62 62 62 62 62 61 61 62 63 63 63 64 64 64 65 65
65 63 58 59 60 61 66 68 65 67 65 68 70 59 56 61 64 63 62 61 60 60 59 58 56 56 54 54 60 60 60 60 60 60 60 61 62 62 59 58 60 61 62 63 63 63 64 64 66
69 56 55 61 60 62 66 63 66 64 61 63 67 61 61 65 63 59 57 57 58 59 58 57 56 56 55 53 55 57 58 59 59 58 59 58 53 54 55 58 60 61 61 63 63 63 63 61 61
62 55 61 66 67 62 67 65 65 59 61 62 62 63 64 62 59 57 56 56 56 55 56 56 55 55 55 61 51 51 54 52 53 53 53 54 53 52 55 55 58 59 58 59 60 60 59 57 53
64 58 66 68 67 68 66 65 68 61 58 64 64 64 60 58 57 57 57 57 58 56 56 57 56 55 54 54 52 51 51 50 50 50 51 51 52 50 49 47 47 47 52 49 51 50 51 50 50
60 67 69 67 66 63 61 66 64 64 64 67 67 69 61 59 58 58 58 59 58 57 57 56 56 55 53 52 51 51 50 50 48 48 50 49 47 47 46 45 46 45 45 45 45 44 47 48 50
62 64 68 68 64 62 65 61 61 63 68 71 69 65 61 61 60 60 61 60 58 58 57 55 54 53 54 52 51 51 48 49 49 48 49 48 46 45 45 45 44 44 44 44 43 44 45 45 47
62 64 64 67 65 63 60 59 60 62 68 68 68 63 62 61 61 60 60 60 61 61 57 56 54 54 53 51 51 50 49 49 48 47 46 48 46 44 44 44 44 43 43 43 43 43 43 44 45
62 56 61 63 64 60 61 54 56 65 64 65 66 65 62 63 63 63 63 62 62 61 58 56 54 54 52 52 51 50 49 50 47 46 47 47 46 45 44 43 43 42 42 43 43 43 43 43 45
56 56 49 61 64 58 58 49 61 68 64 61 62 62 63 62 64 64 64 63 62 60 58 56 59 54 52 51 49 50 48 48 47 46 45 46 46 46 44 42 42 42 42 41 41 41 40 40 40
56 47 51 57 63 57 54 50 61 62 61 59 60 62 64 63 64 64 63 61 61 60 58 55 54 52 50 50 49 48 48 47 46 45 45 46 46 46 43 42 42 42 40 40 40 40 39 37 39
48 50 54 53 57 55 50 51 59 62 61 60 62 62 64 65 65 66 63 62 61 59 58 55 54 51 49 48 47 45 44 44 44 44 44 45 44 44 42 42 41 41 39 38 39 38 38 37 38
58 55 53 59 63 54 53 54 59 64 61 60 64 66 64 66 68 66 65 60 59 57 56 54 52 51 51 46 44 41 43 42 42 43 44 44 43 43 42 40 40 40 38 38 38 37 36 35 37
53 51 52 59 59 54 53 52 58 59 62 63 64 65 66 63 64 62 61 59 58 57 56 54 53 51 51 48 47 43 44 42 42 42 42 43 43 42 42 39 38 38 37 37 36 36 34 34 35
55 50 52 52 56 49 45 43 50 56 60 63 64 65 66 62 61 58 59 58 55 55 55 54 53 52 51 47 46 44 42 40 39 39 38 41 42 41 40 39 38 37 36 34 35 35 34 32 33
48 56 54 52 45 40 48 35 48 54 56 57 60 60 63 60 61 59 57 56 55 56 55 54 53 51 50 48 47 43 42 37 38 41 40 40 40 39 39 39 38 36 35 34 35 37 34 32 30
51 51 47 46 42 39 42 37 44 55 52 56 58 60 65 59 59 56 57 57 55 54 52 53 52 50 49 47 47 43 40 39 40 39 39 38 38 38 38 37 36 35 34 34 34 34 33 33 31
50 46 45 42 40 30 42 42 43 47 52 54 58 60 61 56 55 55 54 53 53 52 50 50 50 50 47 47 46 43 42 41 38 37 36 35 35 35 36 36 34 34 33 33 33 34 33 32 32
45 42 32 27 26 31 47 41 49 51 55 57 59 63 56 55 53 51 51 50 51 49 49 49 48 48 48 47 46 44 43 41 39 39 38 35 34 33 34 34 33 32 33 33 33 33 32 32 31
42 43 31 24 25 39 40 34 45 58 61 59 60 63 54 52 52 51 50 50 49 48 48 48 48 48 48 46 45 44 42 43 41 39 38 35 34 34 35 33 33 33 33 32 32 31 31 31 31
42 36 45 36 26 26 40 45 51 54 56 57 60 55 52 51 51 51 50 48 47 48 47 47 46 47 47 45 44 43 43 41 40 36 35 34 33 35 33 32 32 32 31 32 31 31 30 30 31
42 45 35 34 22 21 41 38 45 50 56 54 53 52 52 52 51 50 50 49 48 49 48 47 46 45 46 45 43 43 42 39 36 35 33 33 32 32 31 30 31 30 31 31 30 30 30 29 30
36 36 38 40 35 29 32 39 47 52 54 53 53 53 52 53 52 52 51 49 49 48 47 46 45 43 44 43 43 41 39 36 35 34 32 31 31 30 29 29 29 29 30 30 29 29 28 28 27
46 45 43 36 34 32 35 41 54 52 54 54 53 55 55 53 53 52 51 48 47 48 47 45 44 43 43 43 41 39 36 34 33 32 30 30 29 29 29 28 28 28 28 28 27 27 27 26 25

GFSSGP_sfc_temp_033.txt.gz
Temp
69 71 66 66 55 51 47 54 57 58 58 59 63 63 62 58 60 51 60 66 67 65 67 68 71 73 74 75 73 74 74 74 75 74 74 73 73 73 73 73 72 73 74 74 74 74 73 73 73
67 76 67 59 49 43 48 55 56 57 61 61 64 61 61 56 60 58 58 66 68 66 66 66 70 71 72 72 72 72 72 72 73 73 72 72 71 71 71 71 71 71 72 72 72 72 71 71 72
72 75 60 54 47 46 49 56 56 59 61 60 57 59 58 58 57 58 60 65 64 63 64 66 70 71 71 71 71 71 71 71 71 71 71 70 70 70 70 69 69 70 71 71 71 71 70 69 69
68 64 60 51 49 55 56 56 59 59 60 62 62 56 56 61 61 61 63 65 61 61 63 67 69 70 70 70 70 70 69 70 70 69 69 69 68 68 68 68 68 68 69 69 69 69 68 68 68
65 58 51 47 51 55 57 61 60 59 58 59 61 57 56 58 60 63 62 63 59 58 60 63 68 69 69 69 69 68 68 68 68 68 67 67 67 67 66 67 67 67 67 67 67 67 67 67 67
58 57 48 45 50 58 60 65 62 60 60 59 57 54 55 58 59 59 60 59 59 58 58 60 65 66 67 67 67 67 66 66 66 66 66 65 65 65 64 65 65 65 66 66 66 66 66 66 67
55 52 47 49 53 58 62 64 61 61 59 60 63 56 50 53 57 59 58 58 57 57 56 55 56 61 64 65 65 65 64 64 64 64 64 64 63 62 61 63 64 64 65 65 65 65 65 66 65
59 55 49 50 54 56 60 60 61 61 61 62 65 57 54 55 58 58 57 56 54 55 54 53 52 53 53 55 62 62 62 62 62 62 62 62 62 60 59 59 62 63 64 64 64 64 63 62 62
62 49 46 52 55 57 60 59 60 61 58 58 63 58 58 59 58 55 53 53 52 55 54 52 51 51 51 51 55 59 60 60 61 59 60 56 50 51 53 59 61 60 61 61 62 61 60 58 57
55 46 53 59 59 57 60 59 61 56 56 57 57 56 57 59 57 55 52 52 51 51 51 53 51 51 50 57 50 49 52 50 50 50 51 50 50 50 52 54 57 57 56 58 58 58 56 53 48
57 51 58 63 61 61 60 57 62 58 55 58 59 56 55 53 55 55 55 55 55 54 53 53 53 51 50 52 47 46 46 46 47 48 48 49 49 47 45 44 44 44 49 45 47 46 47 47 47
55 61 63 63 62 60 57 61 59 58 63 65 63 62 56 54 54 54 54 54 52 52 55 53 52 52 50 48 48 47 47 45 44 46 48 45 43 43 43 42 42 42 42 42 42 42 44 45 46
57 58 63 63 62 60 59 58 57 58 61 64 65 60 56 56 56 57 57 57 56 54 54 53 52 52 52 49 47 47 46 45 45 45 46 45 43 42 42 42 41 41 41 41 41 42 42 43 44
57 58 59 60 61 60 58 54 56 58 61 62 63 60 56 57 56 54 53 55 55 57 54 54 53 53 51 49 47 47 46 45 45 43 44 45 43 42 42 41 41 40 40 40 41 41 41 41 42
58 55 56 58 59 57 57 52 53 64 59 60 59 59 57 57 57 57 57 57 58 58 55 54 53 52 52 49 48 46 45 46 43 43 44 44 43 43 41 40 40 40 40 41 40 41 40 40 42
51 48 44 54 56 57 58 49 57 62 57 59 58 56 57 59 58 60 60 59 59 57 54 55 57 53 50 50 47 47 45 44 43 43 42 44 44 43 41 40 40 40 40 40 39 38 38 37 38
45 41 43 51 58 53 52 49 57 60 56 57 54 56 58 58 59 61 60 60 59 58 56 53 54 51 50 47 46 45 45 43 43 42 41 43 43 43 40 39 39 40 39 38 39 37 37 36 36
40 41 45 47 52 49 46 49 58 57 55 57 55 55 56 60 63 64 61 61 60 58 56 54 53 51 49 46 44 42 42 42 41 40 42 42 41 42 40 39 39 38 37 36 37 37 37 36 35
49 47 44 51 57 51 50 52 55 60 53 57 60 60 58 60 67 60 61 60 58 56 54 52 51 49 50 46 44 42 43 40 39 40 42 41 41 41 39 37 38 37 37 37 38 36 35 33 34
49 48 48 53 55 50 49 50 54 57 59 56 60 61 62 63 58 60 56 57 57 54 53 52 51 50 51 49 48 42 40 40 40 39 40 41 40 39 39 37 36 36 35 35 35 35 32 33 33
50 47 49 48 50 48 45 42 46 53 58 59 60 63 64 64 58 57 53 55 55 53 52 51 51 50 51 48 45 40 41 38 37 37 38 38 40 39 38 37 36 35 34 33 33 33 33 31 31
46 51 50 47 41 40 44 39 44 50 52 55 59 60 60 61 55 56 53 53 54 54 54 52 51 49 49 46 45 45 42 42 42 42 39 37 39 38 37 37 36 34 33 33 33 35 32 31 30
51 49 49 43 38 36 39 35 40 49 47 52 58 60 64 61 55 52 53 56 55 54 52 51 50 48 48 45 47 46 43 43 36 35 36 38 36 37 35 35 34 33 32 32 32 33 32 31 30
48 44 42 39 36 31 37 39 43 41 51 51 59 59 62 58 56 53 54 53 51 49 51 49 48 48 47 46 46 45 43 39 36 37 37 37 37 35 34 34 33 32 32 31 32 32 31 30 30
45 42 30 26 24 30 42 36 48 50 52 56 59 61 62 54 52 49 47 49 48 47 48 49 48 47 47 46 45 44 44 42 40 38 39 36 35 34 33 33 31 31 31 31 31 31 31 30 29
41 46 33 24 25 37 35 31 42 55 61 56 58 61 54 51 51 49 50 49 48 48 46 48 47 48 45 45 45 44 43 42 42 39 39 37 37 36 33 32 32 31 31 31 30 29 30 30 30
41 36 47 35 25 23 42 42 49 51 52 53 55 53 51 49 48 48 47 46 45 45 46 47 47 47 45 45 45 44 42 43 42 39 37 38 35 34 33 32 31 30 30 30 29 29 29 29 29
41 43 34 34 25 21 37 35 44 46 56 58 51 50 50 48 48 48 47 46 46 46 47 46 46 46 45 45 45 44 41 42 41 37 35 33 33 32 32 31 30 29 29 29 29 28 29 28 29
35 36 37 38 34 33 32 40 48 48 49 52 52 51 49 50 49 49 48 46 46 45 44 44 43 43 44 43 43 42 40 39 35 36 36 34 33 31 31 30 29 29 28 28 27 27 27 27 28
44 44 46 37 36 29 33 39 53 55 54 52 49 52 52 52 53 51 49 45 45 46 45 44 44 43 43 43 41 40 37 34 35 35 33 32 32 30 30 29 28 28 27 27 26 26 27 27 26

GFSSGP_sfc_temp_036.txt.gz
Temp
68 68 64 64 54 49 45 51 53 56 56 56 60 60 61 58 59 51 58 62 64 63 67 68 73 74 74 75 75 76 76 76 76 75 75 74 74 73 73 72 72 73 74 74 73 73 72 72 72
66 72 64 56 48 42 46 51 56 57 60 60 59 58 56 58 57 56 57 63 64 64 65 66 71 72 74 73 73 73 73 73 74 73 73 72 72 72 72 71 71 71 72 72 72 71 71 70 70
69 70 59 52 44 43 47 54 55 56 59 59 56 57 59 58 56 56 60 62 63 62 63 65 70 71 72 72 72 72 71 72 72 71 71 71 71 70 70 70 70 70 71 71 71 70 69 69 69
66 62 57 49 46 51 54 57 56 56 57 59 59 54 55 59 58 59 61 61 60 60 62 66 70 71 71 71 71 71 71 71 71 70 70 70 69 69 69 68 68 69 69 69 69 68 67 67 68
61 56 49 44 47 53 58 57 57 57 55 58 59 55 55 57 58 59 59 60 58 57 59 63 69 70 70 70 70 70 70 70 69 69 68 68 68 67 67 67 67 67 67 68 67 67 67 67 68
56 54 46 43 47 55 58 59 57 56 56 55 55 53 56 54 56 57 58 56 57 56 58 60 66 68 68 69 69 68 68 68 68 67 67 67 66 66 66 66 66 66 67 67 66 67 67 66 66
54 50 45 44 50 54 60 60 56 57 56 58 58 55 51 50 56 56 56 54 55 55 55 56 58 62 66 67 67 67 67 67 67 66 66 65 64 64 64 64 65 66 66 66 66 65 64 64 64
56 52 45 46 49 53 57 60 58 59 59 58 62 56 55 53 55 55 54 52 52 53 53 52 53 55 55 57 64 64 65 65 65 64 63 62 61 61 61 62 64 64 64 64 63 62 62 61 61
58 48 43 49 51 55 56 56 58 58 56 56 61 56 56 55 54 52 50 49 49 52 52 50 50 51 51 52 56 61 62 62 62 61 60 55 49 50 53 59 61 61 62 62 61 60 59 57 57
53 44 50 56 55 55 57 57 57 55 54 55 56 54 54 55 54 53 50 50 48 50 49 51 49 49 49 56 51 50 52 50 49 49 49 48 47 48 51 54 57 57 57 58 59 57 55 51 46
53 50 54 60 60 60 58 55 58 55 54 57 59 56 52 50 52 54 54 54 53 52 51 51 50 49 48 51 46 45 45 45 46 47 47 46 47 45 44 43 43 43 47 43 45 44 44 44 44
51 57 59 61 61 59 56 56 56 56 64 62 62 58 52 51 52 53 53 54 51 50 52 52 51 50 48 46 46 45 45 44 43 45 46 44 42 42 41 41 41 41 40 40 40 40 43 43 44
53 55 60 60 60 58 57 58 56 56 59 62 60 56 53 54 54 56 57 55 53 51 53 51 51 51 50 47 46 44 44 44 43 44 45 43 42 41 41 40 40 39 40 40 40 40 41 41 42
54 57 57 57 58 57 57 55 55 63 56 59 59 56 54 55 55 54 51 53 53 55 53 53 52 52 51 49 47 47 45 44 43 42 43 44 42 40 40 39 39 39 39 39 39 39 39 39 40
57 53 54 59 56 56 55 53 51 65 56 58 58 56 56 56 56 55 57 56 56 56 55 52 53 51 51 50 47 46 45 45 43 42 43 43 42 41 40 38 38 38 39 39 39 39 39 39 40
49 46 44 54 52 54 57 51 58 60 56 57 55 55 55 56 56 58 59 57 56 56 54 54 56 52 51 51 48 47 45 44 44 42 41 42 42 41 39 38 38 38 38 38 38 37 37 36 36
41 39 41 48 55 52 50 48 57 56 53 55 55 54 55 59 54 58 59 57 56 57 55 53 54 51 51 49 48 46 45 44 43 40 40 41 41 41 39 38 37 38 37 37 38 36 36 35 35
39 37 41 44 50 46 45 47 56 58 53 53 54 53 53 56 61 64 59 58 58 57 55 55 53 52 50 47 45 42 42 40 40 41 40 40 40 40 38 37 37 37 35 35 35 35 35 34 34
43 42 42 47 52 47 47 49 55 60 53 53 58 60 56 56 65 62 58 57 56 55 53 53 52 50 49 46 44 44 44 42 39 38 41 40 40 39 37 36 36 36 35 35 36 34 33 32 33
45 45 45 51 54 46 48 50 54 55 59 60 58 60 61 63 65 64 55 53 54 54 53 52 52 49 51 51 49 46 46 39 43 40 40 41 39 38 37 36 35 35 34 34 34 34 31 31 32
45 43 45 45 47 44 44 46 47 50 56 62 63 61 64 64 63 65 53 51 53 54 52 51 51 49 52 50 47 38 38 36 36 36 38 38 39 38 37 36 35 34 33 32 32 32 33 31 30
44 49 49 46 38 37 43 39 42 49 51 55 59 60 59 61 63 65 52 49 51 54 53 52 51 49 51 48 45 45 44 43 42 43 38 35 38 37 36 36 34 33 32 32 32 33 32 31 30
48 49 46 41 36 33 37 33 39 48 47 53 59 60 59 62 62 59 51 54 53 53 51 51 50 48 49 45 47 46 44 43 36 35 36 37 36 37 35 34 33 32 31 32 32 31 31 31 30
46 42 40 35 34 28 42 37 45 41 48 52 56 60 62 64 66 52 54 50 48 46 48 49 48 47 45 44 45 46 45 37 36 35 37 37 36 35 34 34 32 32 31 31 31 31 31 30 30
44 38 30 25 23 29 40 35 48 48 51 52 57 60 62 64 62 53 49 46 45 45 45 46 46 45 45 43 44 45 44 40 41 39 39 37 36 34 33 34 32 32 31 31 30 30 30 29 29
39 44 30 21 28 38 33 30 46 52 57 59 57 61 61 58 52 52 49 46 46 47 46 47 45 46 45 44 45 45 44 42 43 40 40 38 38 38 36 35 32 31 31 30 30 29 29 29 29
38 35 46 33 20 21 34 42 53 51 50 50 51 53 54 50 50 49 47 46 45 45 46 47 45 46 45 44 45 43 43 43 43 40 39 39 38 37 33 34 32 31 30 30 29 28 28 29 29
42 43 33 31 21 20 31 33 41 49 51 55 55 52 55 51 49 48 47 46 44 44 44 44 45 46 44 43 44 44 43 43 42 38 37 36 36 34 33 32 32 30 30 29 28 28 28 28 28
35 36 36 36 33 32 30 36 55 54 49 48 50 50 49 48 48 48 48 47 44 43 43 43 41 43 42 43 44 44 41 40 41 37 36 35 34 33 32 32 31 30 29 29 27 27 27 27 26
41 40 43 35 34 34 37 37 57 55 50 50 50 52 50 49 52 50 49 47 44 44 42 43 43 42 44 43 43 42 39 37 38 36 35 33 34 33 32 32 31 30 29 28 27 26 27 25 25

GFSSGP_sfc_temp_042.txt.gz
Temp
66 65 62 62 53 47 42 48 48 51 52 54 58 56 57 56 56 51 56 59 61 64 65 69 74 75 76 76 76 76 76 77 77 76 75 74 74 74 73 73 73 74 74 73 73 73 72 70 71
64 67 62 53 46 39 42 46 51 54 55 54 54 54 53 57 55 55 54 60 62 64 64 66 72 74 75 75 75 76 75 75 75 75 74 74 73 73 73 72 72 72 73 73 72 71 70 70 70
66 65 58 49 40 40 43 49 51 53 54 53 52 53 54 57 54 55 57 60 61 62 63 65 71 74 74 76 76 75 75 75 75 74 74 73 73 72 71 71 71 71 71 71 70 70 69 69 69
63 60 54 47 42 47 49 52 52 52 53 55 54 54 55 58 57 57 58 59 59 59 61 66 71 73 74 76 74 75 75 74 75 73 73 72 71 71 70 70 70 70 70 70 69 69 69 68 68
58 53 46 41 42 48 50 54 54 53 51 52 54 54 54 55 54 55 56 58 58 57 59 63 70 72 73 73 73 73 73 73 73 72 72 71 70 70 70 69 69 69 69 69 69 69 68 67 66
54 51 43 39 43 49 53 54 53 52 53 52 51 50 56 51 53 53 55 55 57 56 58 61 66 69 72 72 72 71 72 72 71 71 70 70 69 69 69 69 68 68 68 68 68 67 66 66 65
52 47 41 39 44 49 54 51 50 51 51 55 54 51 56 51 53 52 53 53 55 56 57 58 60 64 68 69 70 70 71 71 70 70 69 68 68 68 67 67 68 68 68 67 66 65 65 64 63
52 50 40 40 43 49 53 51 53 54 56 54 57 55 55 51 51 50 51 51 52 53 55 55 57 59 59 60 66 67 68 68 68 68 67 65 65 65 65 65 67 67 66 65 64 63 63 62 61
53 46 41 45 45 51 52 51 54 54 52 52 58 55 53 49 49 49 47 48 49 51 52 53 54 55 55 56 58 63 65 65 65 64 62 58 51 52 54 60 65 65 64 64 63 61 59 57 57
51 43 47 51 50 53 53 54 54 52 53 53 55 55 51 49 48 48 47 49 47 49 50 50 51 52 52 55 54 53 55 54 53 52 50 48 47 48 51 56 62 62 62 62 61 58 55 49 43
49 48 49 54 56 54 54 53 56 52 52 56 58 59 51 48 48 49 50 51 53 53 50 50 50 50 50 51 49 48 48 47 47 47 46 45 45 46 45 44 43 43 48 43 45 43 42 42 42
46 53 53 55 56 53 53 54 53 55 63 62 60 60 51 49 49 50 51 52 50 49 51 50 49 49 48 48 48 46 46 44 44 44 44 42 41 41 41 40 39 40 39 39 39 39 41 41 42
47 51 55 55 54 53 54 54 53 54 60 58 58 56 54 51 52 53 54 53 50 49 50 50 49 50 49 47 46 45 45 46 43 43 43 43 41 40 39 39 38 38 38 38 38 39 40 40 41
50 51 53 53 54 54 54 59 51 58 55 58 55 55 53 52 53 50 49 52 50 53 51 51 50 51 49 49 47 47 46 43 43 41 43 42 41 40 39 38 38 37 38 38 38 38 38 38 39
50 49 50 50 51 51 50 51 47 60 52 57 54 54 54 53 52 53 56 55 55 55 54 51 50 51 49 49 47 47 46 44 43 43 41 41 41 40 38 37 37 37 37 37 37 37 37 38 39
45 42 41 49 48 50 52 45 61 57 50 56 55 53 51 54 54 56 57 56 56 55 52 51 54 50 49 50 48 48 45 45 44 42 42 42 41 40 38 37 36 36 36 36 36 36 36 36 36
39 36 38 44 52 50 47 44 55 52 50 54 58 59 57 55 55 54 57 57 57 56 55 52 52 50 49 50 48 47 44 45 44 42 42 41 41 40 40 37 36 36 35 35 36 34 35 35 35
38 34 37 38 49 42 42 43 50 56 49 56 59 60 61 63 65 69 57 57 56 55 55 54 51 52 50 49 47 43 42 44 40 42 42 40 41 40 38 36 36 35 34 34 34 34 33 34 33
40 39 37 43 51 43 48 48 51 55 55 55 58 59 60 61 67 66 60 54 52 50 51 52 50 51 49 47 44 43 44 43 41 42 43 42 41 39 38 36 35 34 35 34 35 33 34 33 32
42 39 40 46 50 42 44 47 53 54 55 58 59 60 62 63 64 61 60 52 50 53 51 51 51 51 49 50 50 50 49 45 45 41 40 42 40 39 39 37 35 34 33 33 33 33 32 32 30
38 38 42 40 43 41 39 41 42 48 52 56 58 60 61 60 60 62 61 54 49 49 49 51 51 51 50 51 49 37 37 35 34 35 37 38 40 39 38 38 36 35 34 34 32 32 33 32 30
38 44 44 41 35 31 41 35 38 49 49 49 55 56 57 58 57 56 57 51 49 51 51 51 51 50 49 49 47 46 47 44 43 44 42 39 40 39 38 37 36 35 34 32 33 33 32 32 32
42 43 41 36 32 31 31 30 36 43 43 50 52 54 58 56 55 58 56 54 53 51 50 50 50 48 48 48 48 46 48 48 40 40 40 39 38 38 37 37 35 34 34 33 33 31 31 31 31
43 39 37 32 31 25 35 35 45 41 44 45 49 54 55 55 54 52 52 51 50 49 46 44 45 46 45 47 48 46 48 42 39 38 38 37 37 36 36 36 36 35 34 32 33 31 31 31 31
41 35 28 25 22 29 34 33 47 46 50 51 56 53 56 53 52 51 50 51 51 46 43 41 43 44 44 45 46 45 47 40 42 40 41 37 36 36 35 35 34 34 34 33 32 32 30 31 31
36 38 30 22 26 36 32 28 45 49 50 50 51 51 49 49 49 48 47 46 45 43 42 40 40 40 42 43 44 44 46 43 44 41 42 40 40 41 38 36 36 35 33 33 32 32 32 30 31
35 33 41 33 30 25 37 38 48 56 57 53 48 46 50 49 48 48 49 47 45 42 41 40 39 39 39 41 43 42 44 43 44 40 39 40 40 39 36 37 35 34 33 33 32 32 31 31 31
40 40 31 28 22 23 30 36 39 46 50 53 48 48 49 50 50 48 47 49 45 42 40 39 39 40 39 40 41 42 43 43 43 39 37 37 38 37 35 36 36 34 33 33 32 32 31 30 30
34 33 33 35 34 27 25 31 49 50 52 49 49 48 50 50 50 50 49 49 46 42 39 39 38 38 37 38 40 40 40 40 39 38 39 38 38 37 35 36 36 34 34 33 32 32 30 31 29
38 38 39 32 29 33 32 32 53 51 53 54 54 54 49 49 46 46 46 45 45 45 45 40 38 37 37 38 39 40 38 38 38 39 39 39 37 37 37 36 36 35 34 34 33 31 31 31 29

GFSSGP_sfc_temp_045.txt.gz
Temp
70 68 67 66 57 53 49 54 58 59 62 64 62 62 63 65 62 61 64 65 66 69 70 74 74 76 76 76 76 75 76 77 77 77 76 75 75 74 74 74 74 75 75 74 74 72 71 71 71
68 70 65 58 51 47 49 54 56 60 63 62 63 63 64 65 65 66 64 65 66 69 70 72 72 75 75 75 75 75 76 77 77 76 75 75 75 73 73 73 73 73 73 73 72 71 70 70 70
69 67 61 52 46 47 50 56 60 62 61 63 63 64 66 67 66 65 65 65 65 68 69 70 71 74 75 75 75 75 75 76 75 75 76 76 74 73 72 72 72 72 72 72 71 71 70 70 69
66 63 58 52 48 52 54 59 60 61 61 61 63 63 66 67 67 66 65 64 65 66 68 69 71 74 74 74 75 76 76 77 76 76 75 73 72 72 71 71 71 71 71 71 70 70 69 68 68
60 57 50 47 48 53 55 58 60 60 61 62 62 63 63 66 62 62 62 63 64 64 66 68 71 73 73 75 76 76 75 74 74 73 72 72 71 71 70 70 70 70 70 70 70 69 68 67 67
57 55 48 46 49 53 56 59 60 59 60 61 60 61 64 62 61 62 60 62 64 64 64 66 67 69 71 73 73 73 74 74 73 72 72 71 70 70 70 69 69 69 69 69 68 67 67 66 65
55 51 47 46 48 51 58 58 59 60 60 62 63 61 66 65 61 58 59 61 62 63 62 64 67 68 67 69 70 72 72 72 72 71 71 70 69 69 69 68 69 69 69 68 67 66 65 65 64
54 53 47 46 48 52 58 58 60 60 63 62 64 62 64 64 56 56 57 59 59 60 62 62 64 66 68 68 67 68 69 69 69 69 68 66 66 66 66 65 68 68 67 66 65 65 64 63 62
57 49 45 49 48 55 58 58 60 61 61 60 62 63 63 54 53 54 55 55 56 57 58 60 61 63 64 64 64 65 65 66 66 66 64 62 63 63 63 62 66 66 65 65 64 62 60 59 58
54 46 49 54 53 56 58 58 60 59 59 59 60 62 56 53 53 54 54 56 55 56 57 58 59 60 60 61 63 64 63 65 64 62 60 59 58 59 59 61 63 64 63 63 62 59 56 53 55
51 50 52 56 56 57 56 55 60 58 55 59 61 64 57 53 52 53 55 57 58 59 58 57 57 58 58 60 59 60 60 60 59 58 56 55 55 57 57 57 56 56 53 55 54 53 53 52 53
50 53 53 56 57 55 55 56 56 57 66 65 63 64 59 55 54 54 55 57 56 55 57 57 56 56 56 57 58 58 57 56 56 55 53 53 52 53 53 53 52 51 51 50 50 51 50 50 50
49 51 55 54 55 54 53 55 55 55 63 61 60 58 59 57 56 56 58 58 56 55 56 56 56 56 56 55 56 55 56 55 55 53 52 52 52 51 50 50 49 49 49 50 49 50 50 49 49
52 51 53 54 54 53 53 57 54 58 59 60 57 59 57 56 59 57 53 56 54 57 57 56 55 56 55 55 54 55 55 54 52 52 51 50 51 50 49 48 48 48 49 48 49 49 49 49 49
51 50 51 51 51 52 51 51 48 61 55 57 57 57 56 57 56 57 62 58 58 58 58 54 55 55 54 55 54 54 53 51 52 51 49 50 49 49 48 47 46 47 47 47 47 47 47 48 48
47 45 43 51 49 51 54 47 58 59 55 60 60 59 57 60 59 60 60 60 60 59 56 56 56 54 54 55 54 54 52 51 52 50 50 49 49 49 47 47 46 46 46 46 47 46 46 47 48
41 39 39 45 51 49 49 46 55 55 53 56 59 63 65 64 62 60 59 60 58 59 58 55 55 55 53 54 54 53 51 51 51 50 50 48 48 48 48 47 46 45 44 45 46 45 47 47 46
40 37 38 40 51 45 44 44 52 58 52 56 60 61 62 62 64 66 64 58 58 58 58 57 54 55 53 54 53 51 50 51 50 49 49 48 48 47 47 46 45 44 43 44 44 45 43 46 46
42 40 39 43 51 44 48 48 51 55 55 55 58 60 61 61 65 64 62 61 56 54 54 54 52 54 52 51 49 48 47 48 48 49 49 47 49 46 47 46 44 43 44 44 44 43 43 42 43
41 38 39 44 48 43 44 46 53 55 56 58 58 59 60 60 61 60 59 58 55 56 53 54 53 53 52 53 53 53 52 51 50 48 47 48 47 47 47 45 44 43 43 41 42 42 41 43 41
39 38 41 40 42 42 39 42 43 50 51 55 56 58 57 58 58 60 57 59 56 54 52 52 53 53 53 53 52 43 45 43 44 44 44 45 46 46 46 45 44 43 43 42 42 42 42 41 39
37 44 43 40 37 34 42 34 41 50 52 51 57 55 56 58 56 55 55 55 56 55 53 52 52 52 51 52 50 48 50 47 48 49 47 45 45 45 45 44 44 43 43 42 41 42 44 43 41
42 43 40 38 35 33 33 31 40 45 46 51 51 54 56 57 54 55 55 54 54 52 52 50 50 49 50 49 52 49 50 52 47 49 45 44 44 45 44 43 43 42 42 43 42 40 41 42 42
43 40 36 33 33 27 35 35 47 41 46 48 52 55 56 61 53 53 53 52 51 50 49 48 47 48 47 48 50 48 49 50 44 44 43 42 43 43 42 42 42 43 42 41 40 42 41 41 41
40 36 30 27 24 33 35 33 47 48 49 54 55 54 56 53 52 52 51 52 52 52 46 46 45 45 45 46 48 48 48 49 44 43 44 41 42 41 40 41 40 41 42 41 41 40 40 40 41
38 40 32 24 29 35 32 30 46 52 50 50 51 51 50 51 50 51 51 50 49 47 46 45 43 42 43 43 45 47 46 48 46 45 45 43 43 43 43 41 42 42 40 40 40 40 40 39 40
35 34 41 35 30 26 38 39 49 52 50 49 50 49 51 51 50 49 49 47 46 46 45 43 42 42 42 42 43 43 44 46 45 44 45 44 44 44 43 41 40 40 39 39 38 38 37 37 39
40 40 32 28 23 23 33 36 39 48 46 48 46 46 47 43 42 42 43 43 43 44 44 45 43 42 41 41 41 42 42 43 43 40 40 41 42 42 40 39 40 39 38 37 37 38 37 36 36
36 34 34 34 34 27 25 33 50 46 45 41 36 38 38 39 39 40 41 42 42 43 43 43 43 42 42 41 40 40 40 41 41 39 40 40 40 40 38 39 39 37 37 37 36 37 36 35 35
39 39 39 32 30 33 33 33 48 44 44 44 38 39 38 37 38 39 40 41 41 41 42 42 41 41 41 42 40 40 39 38 38 39 39 38 38 39 39 39 38 37 37 36 36 35 35 35 33

GFSSGP_sfc_temp_048.txt.gz
Temp
78 83 87 84 71 69 65 66 70 69 71 75 75 74 73 74 73 69 75 78 76 81 82 78 74 76 76 76 76 76 76 77 77 77 77 76 76 75 74 75 75 75 75 74 73 72 72 71 71
84 81 84 79 67 63 67 69 68 72 74 74 73 73 74 75 79 79 77 77 77 81 81 81 72 75 76 76 75 75 76 77 77 77 77 76 76 75 74 73 74 74 74 73 72 71 71 70 70
80 81 79 73 68 64 66 70 73 73 73 73 73 75 76 77 79 79 77 77 77 80 81 81 72 74 75 75 75 75 76 76 76 76 77 76 74 73 73 73 73 73 73 72 72 71 70 70 69
82 82 77 68 64 68 68 74 73 74 72 72 74 73 78 81 79 78 76 78 77 79 80 74 72 74 75 75 75 75 76 76 76 76 76 74 73 72 72 72 72 72 72 71 71 70 69 69 68
82 79 69 64 64 68 71 73 72 71 73 73 72 74 75 78 75 74 75 76 76 78 79 78 71 73 74 74 75 75 76 76 76 75 74 72 72 71 71 71 71 71 71 71 70 69 68 67 67
76 75 66 64 65 69 71 73 71 72 73 73 71 73 78 76 74 75 75 76 78 77 76 77 69 70 72 73 74 75 76 76 74 74 73 72 72 71 71 70 70 70 70 70 69 68 67 66 65
72 70 64 63 64 65 70 71 71 73 73 74 75 72 80 78 75 73 74 77 76 78 75 76 77 73 67 70 71 72 73 73 73 72 71 71 70 70 70 69 69 70 70 69 68 67 66 65 64
75 72 61 63 65 65 73 71 73 73 75 73 77 74 77 78 70 70 71 74 74 75 75 75 76 77 77 76 67 68 70 70 70 69 68 67 67 67 67 66 68 69 68 67 66 66 65 64 62
70 66 63 64 61 69 73 70 72 74 74 73 75 77 79 69 67 69 68 69 71 71 72 74 74 75 76 76 73 66 66 66 67 67 64 64 72 71 68 67 67 67 67 66 65 64 62 61 59
69 64 66 71 72 70 72 70 73 71 74 74 75 78 74 68 68 71 71 72 70 70 70 73 73 74 74 74 74 74 71 72 70 71 71 72 72 71 69 65 64 65 64 64 63 61 58 59 66
66 65 70 69 71 70 69 68 72 71 69 76 76 80 80 71 70 70 74 76 75 75 73 71 72 73 72 72 73 74 73 73 71 72 71 69 68 66 67 68 67 66 61 66 63 60 64 62 65
61 67 68 68 67 66 66 70 68 70 74 81 81 80 78 75 73 72 73 75 75 74 73 72 71 70 71 72 71 72 72 72 71 70 68 66 66 66 66 66 66 64 64 62 61 61 60 60 60
61 67 67 67 65 66 67 65 67 69 76 79 78 74 73 76 76 77 75 75 75 72 72 71 70 69 69 69 71 71 70 69 70 68 66 67 66 64 65 65 64 64 62 61 61 60 60 59 59
64 63 64 66 66 66 62 68 63 73 77 74 73 74 77 75 76 77 74 72 71 71 71 72 70 69 69 68 69 69 69 69 68 67 66 64 66 64 63 62 61 61 62 62 62 61 60 59 58
63 60 66 68 65 63 63 59 60 73 74 71 75 77 78 76 76 74 77 76 75 73 72 71 69 69 68 67 68 68 68 68 66 66 65 63 63 63 62 61 60 61 60 59 59 58 59 59 58
60 59 57 66 60 62 63 58 71 76 70 71 75 78 78 78 78 80 79 77 78 75 72 71 68 67 67 67 67 67 67 66 65 65 65 62 61 62 61 60 59 60 58 59 58 58 58 59 58
58 55 55 57 63 61 60 59 67 71 70 69 72 74 75 76 77 79 80 77 77 76 74 71 68 66 66 66 67 66 65 64 65 65 64 62 61 61 61 60 60 58 57 57 58 57 58 56 57
57 54 56 53 63 60 57 57 63 68 67 67 70 72 73 72 74 77 76 77 75 75 73 72 69 67 66 65 65 65 64 63 64 64 63 61 60 59 59 59 59 56 56 56 56 56 57 58 57
56 54 54 58 63 57 56 58 61 65 66 65 67 70 71 72 76 75 73 74 74 71 70 69 68 66 66 62 61 61 60 61 61 62 61 61 59 58 57 58 58 55 54 55 55 55 52 53 55
54 51 52 59 60 52 57 55 60 64 64 66 66 68 70 72 75 73 72 72 72 71 71 68 67 66 65 64 63 63 62 63 61 61 60 60 59 58 57 57 55 54 54 54 54 53 52 54 54
52 49 52 53 55 58 53 56 57 65 63 65 65 67 69 69 69 69 68 71 71 71 70 68 67 65 64 63 63 61 63 59 58 58 57 57 58 58 56 57 56 54 54 53 52 52 52 51 51
48 58 52 49 47 47 53 45 56 62 63 65 66 67 69 72 71 70 69 68 67 65 63 64 64 63 62 62 61 59 57 56 58 58 57 57 56 57 56 56 56 54 54 53 52 53 54 55 50
52 52 49 48 47 44 50 43 57 59 59 62 65 67 70 72 67 66 64 63 64 60 59 60 61 60 59 58 60 59 57 60 61 59 57 56 55 55 55 55 54 54 53 54 53 51 52 54 54
52 51 48 46 46 39 51 48 52 56 57 60 66 68 69 64 64 63 60 59 57 56 55 56 56 57 56 57 58 58 57 57 58 57 55 55 54 53 53 53 53 53 53 53 52 52 51 52 54
50 48 41 39 39 39 50 44 50 61 65 61 62 62 59 56 54 52 51 51 52 51 51 52 53 53 55 55 55 56 57 56 55 56 55 53 51 50 51 51 51 52 52 53 52 51 51 50 51
48 50 40 27 32 40 49 40 52 62 62 61 55 52 51 51 51 50 49 49 50 49 50 51 50 49 51 51 52 53 53 54 54 55 55 54 53 52 52 51 51 51 52 52 51 51 50 50 48
46 43 51 40 38 35 44 51 59 62 55 49 48 50 49 48 49 49 49 48 48 48 48 49 48 48 48 48 49 49 51 51 51 52 51 51 50 49 49 49 48 49 49 49 50 48 48 47 47
48 51 41 40 29 28 40 43 46 54 52 45 45 45 45 46 46 46 47 48 48 48 49 49 49 47 47 47 47 47 47 48 49 51 49 48 49 49 47 48 47 48 48 48 48 47 47 45 45
46 42 42 41 38 30 30 39 56 49 45 44 43 42 42 43 43 45 46 47 48 49 48 48 47 46 46 46 46 45 45 45 46 46 48 48 48 49 47 47 46 46 46 46 45 46 45 42 43
49 46 46 33 32 37 35 37 57 53 49 42 40 40 40 41 43 45 45 46 46 46 46 45 46 45 45 45 44 44 44 44 44 44 46 47 47 47 46 46 45 45 45 45 44 44 44 41 40